Back to provider search

HCPCS Code detail

99203

New patient office or other outpatient visit, 30-44 minutes

Latest data year CY2023

Ranking basis

Providers are ordered to identify the highest Medicare FFS volume for this code. Higher volume is a utilization signal only and is not presented as a quality, outcomes, or appropriateness measure.

Providers billing code3,721Distinct nationwide ophthalmology providers in Medicare FFS
Services for code144,776Total selected-code Medicare FFS services
Beneficiaries144,764Beneficiaries tied to selected-code rows
Average allowedBy providerDisplayed per row from Medicare allowed amount

Code-specific provider rankings

Filter by state or city, then sort providers by selected-code utilization, beneficiaries, average allowed amount, or overall Medicare FFS footprint.

National code rankState code rankProviderNPIMarketServicesBeneficiariesAverage Medicare allowedPlace of serviceProvider total services
#1,176Filter by stateSteven K Anderson1518991678Fargo, ND3333$80.16F3,954
#1,177Filter by stateJohn D Pemberton1528278322Little Rock, AR3333$74.05F765
#1,178Filter by stateDaniel Ofori1619388691Memphis, TN3333$75.96O2,291
#1,179Filter by stateJames F Martone1649242603Hamden, CT3333$120.50O373
#1,180Filter by stateJohn A Kulits1659391837Brevard, NC3333$81.82F467
#1,181Filter by stateStephen R Franklin1669556262Powell, TN3333$99.48O2,080
#1,182Filter by stateDaniel Krivoy1679531974Culver City, CA3333$122.04O5,940
#1,183Filter by stateSuzanne K Freitag1710974464Boston, MA3333$123.32O1,632
#1,184Filter by stateRichard B Moore1750606505Temple, TX3333$79.54F1,873
#1,185Filter by stateBeau Froebel1780115493Warren, PA3333$109.06O4,194
#1,186Filter by stateNeal E Ginsberg1801839287Pittsfield, MA3333$114.45O4,043
#1,187Filter by stateBrian Groat1841271228Wilmington, NC3333$105.90O6,530
#1,188Filter by stateKeith D Carter1942201082Iowa City, IA3333$76.53F788
#1,189Filter by stateJay B Futterman1952515645Lake Bluff, IL3333$86.75O1,809
#1,190Filter by stateHarold H Weiler1972516268Kilmarnock, VA3333$109.96O2,603
#1,191Filter by stateJose J De La Cruz-Napoli1033182548San Juan, PR3232$119.43O687
#1,192Filter by stateMeisha Raven1073975322Milwaukee, WI3232$104.93O2,047
#1,193Filter by stateW J Knauer1104896158Jacksonville, FL3232$111.08O704
#1,194Filter by stateBlair E Boehmer1134313638Indianapolis, IN3232$102.96O9,630
#1,195Filter by stateJustin L Gottlieb1164498697Madison, WI3232$96.44O6,711
#1,196Filter by stateDavid A Steinberg1184652323Fishkill, NY3232$121.42O3,289
#1,197Filter by stateRamy Rizkalla1215926498East Weymouth, MA3232$118.76O6,423
#1,198Filter by stateSteven L Carter1275038267Ventura, CA3232$120.95O1,527
#1,199Filter by stateRavi Shah1295186872Pearland, TX3232$111.33O1,843
#1,200Filter by stateSanjeev Dewan1295702066Alliance, OH3232$108.77O3,325

Full code-specific utilization ranking

Request the full provider utilization export, named peer comparison, and code-specific market scan for this CPT/HCPCS code.

Request full code benchmark